EUTELSAT 16A

Last updated on Tue Sep 22 2026 00:03:12 GMT+0000 (Coordinated Universal Time)

1 37836U 11057A 26264.56351769 .00000101 00000+0 00000+0 0 9993 2 37836 0.1097 65.9697 0005496 114.7715 38.5718 1.00273499 8306
UTC large
Height (km)
Speed (km/s)
/
Latitude / Longitude
Inclination (degrees)
Orbital Period (minutes)
Azimuth
Elevation
Range (km)
Doppler Factor

Next 0 passes for location: London (51.5072 / 0.1276)

No passes found over London.
EUTELSAT 16A